FREGAT R/B, 43235

Orbit data source: Space-Track

FREGAT R/B, 43235 is space debris originally from a launch on Fri, 09 Mar 2018 UTC launched from the French Guiana (FRGUI). Debris objects in space refer to the collection of defunct objects orbiting the Earth. Examples of debris include non-operational satellites, rocket bodies, and fragments generated from explosions, collisions, or faulty payload assembly.

Loading next visibility...
Identifier
43235, 2018-024E
Orbit
Active
Country
Flag of CISCIS
Related business
Manufacturer
Lavochkin
Mission
Spacecraft
Bus & Motor
FREGAT, Unknown motor
Mass
1,050 kg wet, 1,050 kg dry
Launch date (UTC)
2018-03-09 (8 years ago)
Launch vehicle
Unknown
Launch site
French Guiana (FRGUI)
Object type
Payload
Rocket body
Debris
Shape & HBR
Irr, 1.6 m
Radar Cross Section
11.055 m², Large (>1 m²)

Expand to show TLE details & history
Last TLE update: 15 hours ago

TLE from 15 hours ago
0 FREGAT R/B
1 43235U 18024E   25258.40601308 -.00000024  00000-0  00000-0 0  9993
2 43235   0.1106   9.4670 0010095 231.4967 118.9357  5.21348069143235
Epoch: 2025-09-15T09:44Z
TLE epoch observation values (Epoch: 2025-09-15T09:44:39.53Z)
Latitude
-0.01975°
Longitude
-140.77583°
Altitude
7,676.325 km
Speed
5.325 km/s
True Right ascension
00h 00m 00s
True Declination
0° 01' 11"
Sunlit
Object was in full shadow at epoch
Visualization orbit readout
Latitude
Unknown
Longitude
Unknown
Altitude
Unknown
Speed
Unknown
Apparent Right ascension
Unknown
Apparent Declination
Unknown
Sunlit
N/A
Visualization observer readout
Local Sidereal Time
17:53:28
Azimuth
Unknown
Elevation
Unknown
Doppler factor
Unknown
Orbital elements
Apogee altitude
7,688.341 km
Perigee altitude
7,659.969 km
Semi-major axis
14,052.292 km
Eccentricity
0.00101
Inclination
0.1106°
RAAN
9.467°
Arg. of periapsis
231.4967°
True anomaly
119.03688°
Mean anomaly
118.9357°
Eccentric anomaly
118.98629°
Mean motion
1.30293 °/min
Orbital period
276.3 mins
BSTAR
0
Loading maneuver chart data...
Computing Atmospheric mass density...
Loading historical data...
Loading historical data...
Loading historical data...
Loading historical data...
Loading historical data...
Loading historical data...
Loading historical data...
Other satellites on launch #24 in the year 2018 (2018-03-09 UTC)

Documentation

Showing up to 5 results
|